START_TIME,STEP,MOV.,M6,t_acc.,M7,t_acc.,M19,t_acc.,H36,t_acc.
1979-03-03 18:00:16.590 ,3,1,0.,12.0,0.,12.0,0.,12.0,5.,12.0
1979-03-03 18:00:28.590 ,3,1,0.,12.0,0.,12.0,0.,12.0,10.,12.0
1979-03-03 18:00:40.590 ,4,1,0.,12.0,0.,12.0,0.,12.0,13.,12.0
1979-03-03 18:00:52.590 ,4,1,0.,12.0,0.,12.0,0.,12.0,10.,12.0
1979-03-03 18:01:04.590 ,5,1,2.,12.0,0.,12.0,0.,12.0,5.,12.0
1979-03-03 18:01:16.590 ,5,1,0.,12.0,0.,12.0,0.,12.0,4.,12.0
1979-03-03 18:01:28.590 ,6,1,1.,12.0,0.,12.0,0.,12.0,12.,12.0
1979-03-03 18:01:40.590 ,6,1,0.,12.0,0.,12.0,0.,12.0,10.,12.0
1979-03-03 18:01:52.590 ,7,1,3.,12.0,0.,12.0,0.,12.0,9.,12.0
1979-03-03 18:02:04.590 ,7,1,0.,12.0,0.,12.0,0.,12.0,3.,12.0
1979-03-03 18:02:16.590 ,7,1,0.,12.0,0.,12.0,0.,12.0,0.,12.0
1979-03-03 18:02:28.590 ,7,1,0.,12.0,0.,12.0,0.,12.0,0.,12.0
1979-03-03 18:02:40.590 ,6,1,0.,12.0,0.,12.0,0.,12.0,0.,12.0
1979-03-03 18:02:52.590 ,6,1,3.,12.0,0.,12.0,0.,12.0,9.,12.0
1979-03-03 18:03:04.590 ,5,1,1.,12.0,0.,12.0,0.,12.0,6.,12.0
1979-03-03 18:03:16.590 ,5,1,1.,12.0,0.,12.0,0.,12.0,13.,12.0
1979-03-03 18:03:28.590 ,4,1,1.,12.0,0.,12.0,0.,12.0,11.,12.0
1979-03-03 18:03:40.590 ,4,1,0.,12.0,0.,12.0,0.,12.0,1.,12.0
1979-03-03 18:03:52.590 ,3,1,1.,12.0,0.,12.0,0.,12.0,10.,12.0
1979-03-03 18:04:04.590 ,3,1,0.,12.0,0.,12.0,0.,12.0,3.,12.0
1979-03-03 18:04:16.590 ,2,1,0.,12.0,0.,12.0,0.,12.0,1.,12.0
1979-03-03 18:04:28.590 ,2,1,0.,12.0,0.,12.0,0.,12.0,5.,12.0
1979-03-03 18:04:40.590 ,1,1,0.,12.0,0.,12.0,0.,12.0,5.,12.0
1979-03-03 18:04:52.590 ,1,1,0.,12.0,0.,12.0,0.,12.0,5.,12.0
1979-03-03 18:05:04.590 ,0,1,0.,12.0,0.,12.0,0.,12.0,5.,12.0
1979-03-03 18:05:16.590 ,0,1,0.,12.0,0.,12.0,0.,12.0,6.,12.0
1979-03-03 18:05:28.590 ,0,1,0.,12.0,0.,12.0,0.,12.0,3.,12.0
1979-03-03 18:05:40.590 ,0,1,0.,12.0,0.,12.0,0.,12.0,12.,12.0
1979-03-03 18:05:52.590 ,1,1,1.,12.0,0.,12.0,0.,12.0,4.,12.0
1979-03-03 18:06:04.590 ,1,1,0.,12.0,0.,12.0,0.,12.0,2.,12.0
1979-03-03 18:06:16.590 ,2,1,0.,12.0,0.,12.0,0.,12.0,5.,12.0
1979-03-03 18:06:28.590 ,2,1,0.,12.0,0.,12.0,0.,12.0,3.,12.0
1979-03-03 18:06:40.590 ,3,1,1.,12.0,0.,12.0,0.,12.0,3.,12.0
1979-03-03 18:06:52.590 ,3,1,1.,12.0,0.,12.0,0.,12.0,8.,12.0
1979-03-03 18:07:04.590 ,4,1,0.,12.0,0.,12.0,0.,12.0,4.,12.0
1979-03-03 18:07:16.590 ,4,1,0.,12.0,0.,12.0,0.,12.0,9.,12.0
1979-03-03 18:07:28.590 ,5,1,1.,12.0,0.,12.0,0.,12.0,8.,12.0
1979-03-03 18:07:40.590 ,5,1,2.,12.0,0.,12.0,0.,12.0,13.,12.0
1979-03-03 18:07:52.590 ,6,1,1.,12.0,0.,12.0,0.,12.0,8.,12.0
1979-03-03 18:08:04.590 ,6,1,3.,12.0,0.,12.0,0.,12.0,17.,12.0
1979-03-03 18:08:16.590 ,7,1,1.,12.0,0.,12.0,0.,12.0,3.,12.0
1979-03-03 18:08:28.590 ,7,1,0.,12.0,0.,12.0,0.,12.0,0.,12.0
1979-03-03 18:08:40.590 ,7,1,0.,12.0,0.,12.0,0.,12.0,0.,12.0
1979-03-03 18:08:52.590 ,7,1,0.,12.0,0.,12.0,0.,12.0,0.,12.0
1979-03-03 18:09:04.590 ,6,1,0.,12.0,0.,12.0,0.,12.0,0.,12.0
1979-03-03 18:09:16.590 ,6,1,2.,12.0,0.,12.0,0.,12.0,14.,12.0
1979-03-03 18:09:28.590 ,5,1,3.,12.0,0.,12.0,0.,12.0,9.,12.0
1979-03-03 18:09:40.590 ,5,1,0.,12.0,0.,12.0,0.,12.0,12.,12.0
1979-03-03 18:09:52.590 ,4,1,0.,12.0,0.,12.0,0.,12.0,13.,12.0
1979-03-03 18:10:04.590 ,4,1,0.,12.0,0.,12.0,0.,12.0,10.,12.0
1979-03-03 18:10:16.590 ,3,1,1.,12.0,0.,12.0,0.,12.0,17.,12.0
1979-03-03 18:10:28.590 ,3,1,0.,12.0,0.,12.0,0.,12.0,4.,12.0
1979-03-03 18:10:40.590 ,2,1,1.,12.0,0.,12.0,0.,12.0,6.,12.0
1979-03-03 18:10:52.590 ,2,1,0.,12.0,0.,12.0,0.,12.0,5.,12.0
1979-03-03 18:11:04.590 ,1,1,0.,12.0,0.,12.0,0.,12.0,4.,12.0
1979-03-03 18:11:16.590 ,1,1,1.,12.0,0.,12.0,0.,12.0,7.,12.0
1979-03-03 18:11:28.590 ,0,1,1.,12.0,0.,12.0,0.,12.0,5.,12.0
1979-03-03 18:11:40.590 ,0,1,0.,12.0,0.,12.0,0.,12.0,4.,12.0
1979-03-03 18:11:52.590 ,0,1,0.,12.0,0.,12.0,0.,12.0,3.,12.0
1979-03-03 18:12:04.590 ,0,1,1.,12.0,0.,12.0,0.,12.0,2.,12.0
1979-03-03 18:12:16.590 ,1,1,0.,12.0,0.,12.0,0.,12.0,7.,12.0
1979-03-03 18:12:28.590 ,1,1,0.,12.0,0.,12.0,0.,12.0,4.,12.0
1979-03-03 18:12:40.590 ,2,1,0.,12.0,0.,12.0,0.,12.0,3.,12.0
1979-03-03 18:12:52.590 ,2,1,0.,12.0,0.,12.0,0.,12.0,5.,12.0
1979-03-03 18:13:04.590 ,0,0,0.,12.0,0.,12.0,0.,12.0,2.,12.0
1979-03-03 18:13:16.590 ,0,0,0.,12.0,0.,12.0,0.,12.0,5.,12.0
1979-03-03 18:13:43.590 ,0,0,,0,,0,,0,,0
1979-03-03 18:13:55.590 ,0,0,0.,12.0,0.,12.0,0.,12.0,13.,12.0
1979-03-03 18:13:52.590 ,5,1,0.,12.0,0.,12.0,0.,12.0,9.,12.0
1979-03-03 18:14:04.590 ,5,1,0.,12.0,0.,12.0,0.,12.0,16.,12.0
1979-03-03 18:14:16.590 ,6,1,2.,12.0,0.,12.0,0.,12.0,10.,12.0
1979-03-03 18:14:28.590 ,6,1,2.,12.0,0.,12.0,0.,12.0,9.,12.0
1979-03-03 18:14:40.590 ,7,1,3.,12.0,0.,12.0,0.,12.0,13.,12.0
1979-03-03 18:14:52.590 ,7,1,0.,12.0,0.,12.0,0.,12.0,1.,12.0
1979-03-03 18:15:04.590 ,7,1,0.,12.0,0.,12.0,0.,12.0,0.,12.0
1979-03-03 18:15:16.590 ,7,1,0.,12.0,0.,12.0,0.,12.0,0.,12.0
1979-03-03 18:15:28.590 ,6,1,0.,12.0,0.,12.0,0.,12.0,0.,12.0
1979-03-03 18:15:40.590 ,6,1,1.,12.0,0.,12.0,0.,12.0,5.,12.0
1979-03-03 18:15:52.590 ,5,1,0.,12.0,0.,12.0,0.,12.0,17.,12.0
1979-03-03 18:16:04.590 ,5,1,1.,12.0,0.,12.0,0.,12.0,14.,12.0
1979-03-03 18:16:16.590 ,4,1,0.,12.0,0.,12.0,0.,12.0,9.,12.0
1979-03-03 18:16:28.590 ,4,1,1.,12.0,0.,12.0,0.,12.0,6.,12.0
1979-03-03 18:16:40.590 ,3,1,0.,12.0,0.,12.0,0.,12.0,6.,12.0
1979-03-03 18:16:52.590 ,3,1,2.,12.0,0.,12.0,0.,12.0,3.,12.0
1979-03-03 18:17:04.590 ,2,1,1.,12.0,0.,12.0,0.,12.0,7.,12.0
1979-03-03 18:17:16.590 ,2,1,1.,12.0,0.,12.0,0.,12.0,4.,12.0
1979-03-03 18:17:28.590 ,1,1,1.,12.0,0.,12.0,0.,12.0,7.,12.0
1979-03-03 18:17:40.590 ,1,1,0.,12.0,0.,12.0,0.,12.0,1.,12.0
1979-03-03 18:17:52.590 ,0,1,0.,12.0,0.,12.0,0.,12.0,3.,12.0
1979-03-03 18:18:04.590 ,0,1,1.,12.0,0.,12.0,0.,12.0,10.,12.0
1979-03-03 18:18:16.590 ,0,0,1.,12.0,0.,12.0,0.,12.0,11.,12.0
1979-03-03 18:18:28.590 ,0,0,0.,12.0,0.,12.0,0.,12.0,7.,12.0
1979-03-03 18:18:40.590 ,1,1,,0,,0,,0,,0
1979-03-03 18:18:52.590 ,1,1,1.,12.0,0.,12.0,0.,12.0,4.,12.0
1979-03-03 18:19:04.590 ,2,1,0.,12.0,0.,12.0,0.,12.0,4.,12.0
1979-03-03 18:19:16.590 ,2,1,1.,12.0,0.,12.0,0.,12.0,7.,12.0
1979-03-03 18:19:28.590 ,3,1,1.,12.0,0.,12.0,0.,12.0,5.,12.0
1979-03-03 18:19:40.590 ,3,1,0.,12.0,0.,12.0,0.,12.0,10.,12.0
1979-03-03 18:19:52.590 ,4,1,2.,12.0,0.,12.0,0.,12.0,6.,12.0
1979-03-03 18:20:04.590 ,4,1,0.,12.0,0.,12.0,0.,12.0,10.,12.0
1979-03-03 18:20:16.590 ,5,1,0.,12.0,0.,12.0,0.,12.0,9.,12.0
1979-03-03 18:20:28.590 ,5,1,2.,12.0,0.,12.0,0.,12.0,14.,12.0
1979-03-03 18:20:40.590 ,6,1,1.,12.0,0.,12.0,0.,12.0,19.,12.0
1979-03-03 18:20:52.590 ,6,1,1.,12.0,0.,12.0,0.,12.0,12.,12.0
1979-03-03 18:21:04.590 ,7,1,3.,12.0,0.,12.0,0.,12.0,18.,12.0
1979-03-03 18:21:16.590 ,7,1,0.,12.0,0.,12.0,0.,12.0,2.,12.0
1979-03-03 18:21:28.590 ,7,1,0.,12.0,0.,12.0,0.,12.0,0.,12.0
1979-03-03 18:21:40.590 ,7,1,0.,12.0,0.,12.0,0.,12.0,0.,12.0
1979-03-03 18:21:52.590 ,6,1,0.,12.0,0.,12.0,0.,12.0,0.,12.0
1979-03-03 18:22:04.590 ,6,1,0.,12.0,0.,12.0,0.,12.0,14.,12.0
1979-03-03 18:22:16.590 ,5,1,1.,12.0,0.,12.0,0.,12.0,12.,12.0
1979-03-03 18:22:28.590 ,5,1,3.,12.0,0.,12.0,0.,12.0,13.,12.0
1979-03-03 18:22:40.590 ,4,1,2.,12.0,0.,12.0,0.,12.0,15.,12.0
1979-03-03 18:22:52.590 ,4,1,2.,12.0,0.,12.0,0.,12.0,15.,12.0
1979-03-03 18:23:04.590 ,0,0,1.,12.0,0.,12.0,0.,12.0,14.,12.0
1979-03-03 18:23:16.590 ,0,0,,0,,0,,0,,0
1979-03-03 18:23:28.590 ,0,0,,0,,0,,0,,0
1979-03-03 18:23:40.590 ,0,0,,0,,0,,0,,0
1979-03-03 18:57:54.990 ,0,0,2.,12.0,0.,12.0,0.,12.0,14.,12.0
1979-03-03 18:58:06.990 ,0,0,1.,12.0,0.,12.0,0.,12.0,14.,12.0
1979-03-03 18:58:16.590 ,4,1,0.,12.0,0.,12.0,0.,12.0,13.,12.0
1979-03-03 18:58:28.590 ,4,1,2.,12.0,0.,12.0,0.,12.0,25.,12.0
1979-03-03 18:58:40.590 ,5,1,2.,12.0,0.,12.0,0.,12.0,18.,12.0
1979-03-03 18:58:52.590 ,5,1,3.,12.0,0.,12.0,0.,12.0,29.,12.0
1979-03-03 18:59:04.590 ,6,1,2.,12.0,0.,12.0,0.,12.0,21.,12.0
1979-03-03 18:59:16.590 ,6,1,5.,12.0,0.,12.0,0.,12.0,18.,12.0
1979-03-03 18:59:28.590 ,7,1,3.,12.0,0.,12.0,0.,12.0,25.,12.0
1979-03-03 18:59:40.590 ,7,1,0.,12.0,0.,12.0,0.,12.0,4.,12.0
1979-03-03 18:59:52.590 ,7,1,0.,12.0,0.,12.0,0.,12.0,0.,12.0
1979-03-03 19:00:04.590 ,7,1,0.,12.0,0.,12.0,0.,12.0,0.,12.0
1979-03-03 19:00:16.590 ,6,1,0.,12.0,0.,12.0,0.,12.0,0.,12.0
1979-03-03 19:00:28.590 ,6,1,1.,12.0,0.,12.0,0.,12.0,19.,12.0
1979-03-03 19:00:40.590 ,5,1,0.,12.0,0.,12.0,0.,12.0,24.,12.0
1979-03-03 19:00:52.590 ,5,1,0.,12.0,0.,12.0,0.,12.0,20.,12.0
1979-03-03 19:01:04.590 ,4,1,3.,12.0,0.,12.0,0.,12.0,18.,12.0
1979-03-03 19:01:16.590 ,4,1,2.,12.0,0.,12.0,0.,12.0,30.,12.0
1979-03-03 19:01:28.590 ,3,1,3.,12.0,0.,12.0,0.,12.0,21.,12.0
1979-03-03 19:01:40.590 ,3,1,1.,12.0,0.,12.0,0.,12.0,20.,12.0
1979-03-03 19:01:52.590 ,2,1,3.,12.0,0.,12.0,0.,12.0,16.,12.0
1979-03-03 19:02:04.590 ,2,1,0.,12.0,0.,12.0,0.,12.0,11.,12.0
1979-03-03 19:02:16.590 ,1,1,0.,12.0,0.,12.0,0.,12.0,6.,12.0
1979-03-03 19:02:28.590 ,1,1,0.,12.0,0.,12.0,0.,12.0,10.,12.0
1979-03-03 19:02:40.590 ,0,1,2.,12.0,0.,12.0,0.,12.0,17.,12.0
1979-03-03 19:02:52.590 ,0,1,0.,12.0,0.,12.0,0.,12.0,11.,12.0
1979-03-03 19:03:04.590 ,0,1,1.,12.0,0.,12.0,0.,12.0,6.,12.0
1979-03-03 19:03:16.590 ,0,1,1.,12.0,0.,12.0,0.,12.0,13.,12.0
1979-03-03 19:03:28.590 ,1,1,1.,12.0,0.,12.0,0.,12.0,7.,12.0
1979-03-03 19:03:40.590 ,1,1,0.,12.0,0.,12.0,0.,12.0,12.,12.0
1979-03-03 19:03:52.590 ,2,1,1.,12.0,0.,12.0,0.,12.0,11.,12.0
1979-03-03 19:04:04.590 ,2,1,0.,12.0,0.,12.0,0.,12.0,6.,12.0
1979-03-03 19:04:16.590 ,3,1,2.,12.0,0.,12.0,0.,12.0,7.,12.0
1979-03-03 19:04:28.590 ,3,1,0.,12.0,0.,12.0,0.,12.0,11.,12.0
1979-03-03 19:04:40.590 ,4,1,4.,12.0,0.,12.0,0.,12.0,23.,12.0
1979-03-03 19:04:52.590 ,4,1,3.,12.0,0.,12.0,0.,12.0,22.,12.0
1979-03-03 19:05:04.590 ,5,1,2.,12.0,0.,12.0,0.,12.0,13.,12.0
1979-03-03 19:05:16.590 ,5,1,0.,12.0,0.,12.0,0.,12.0,21.,12.0
1979-03-03 19:05:28.590 ,6,1,1.,12.0,0.,12.0,0.,12.0,18.,12.0
1979-03-03 19:05:40.590 ,6,1,0.,12.0,0.,12.0,0.,12.0,21.,12.0
1979-03-03 19:05:52.590 ,7,1,2.,12.0,0.,12.0,0.,12.0,13.,12.0
1979-03-03 19:06:04.590 ,7,1,0.,12.0,0.,12.0,0.,12.0,1.,12.0
1979-03-03 19:06:16.590 ,7,1,0.,12.0,0.,12.0,0.,12.0,0.,12.0
1979-03-03 19:06:28.590 ,7,1,0.,12.0,0.,12.0,0.,12.0,0.,12.0
1979-03-03 19:06:40.590 ,6,1,0.,12.0,0.,12.0,0.,12.0,0.,12.0
1979-03-03 19:06:52.590 ,6,1,1.,12.0,0.,12.0,0.,12.0,13.,12.0
1979-03-03 19:07:04.590 ,5,1,0.,12.0,0.,12.0,0.,12.0,9.,12.0
1979-03-03 19:07:16.590 ,5,1,0.,12.0,0.,12.0,0.,12.0,14.,12.0
1979-03-03 19:07:28.590 ,4,1,2.,12.0,0.,12.0,0.,12.0,17.,12.0
1979-03-03 19:07:40.590 ,4,1,0.,12.0,0.,12.0,0.,12.0,11.,12.0
1979-03-03 19:07:52.590 ,3,1,3.,12.0,0.,12.0,0.,12.0,19.,12.0
1979-03-03 19:08:04.590 ,3,1,1.,12.0,0.,12.0,0.,12.0,14.,12.0
1979-03-03 19:08:16.590 ,2,1,1.,12.0,0.,12.0,0.,12.0,21.,12.0
1979-03-03 19:08:28.590 ,2,1,1.,12.0,0.,12.0,0.,12.0,16.,12.0
1979-03-03 19:08:40.590 ,1,1,2.,12.0,0.,12.0,0.,12.0,16.,12.0
1979-03-03 19:08:52.590 ,1,1,3.,12.0,0.,12.0,0.,12.0,12.,12.0
1979-03-03 19:09:04.590 ,0,1,0.,12.0,0.,12.0,0.,12.0,20.,12.0
1979-03-03 19:09:16.590 ,0,1,1.,12.0,0.,12.0,0.,12.0,16.,12.0
1979-03-03 19:09:28.590 ,0,1,1.,12.0,0.,12.0,0.,12.0,14.,12.0
1979-03-03 19:09:40.590 ,0,1,0.,12.0,0.,12.0,0.,12.0,13.,12.0
1979-03-03 19:09:52.590 ,1,1,0.,12.0,0.,12.0,0.,12.0,11.,12.0
1979-03-03 19:10:04.590 ,1,1,1.,12.0,0.,12.0,0.,12.0,30.,12.0
1979-03-03 19:10:16.590 ,2,1,1.,12.0,0.,12.0,0.,12.0,15.,12.0
1979-03-03 19:10:28.590 ,2,1,1.,12.0,0.,12.0,0.,12.0,19.,12.0
1979-03-03 19:10:40.590 ,3,1,0.,12.0,0.,12.0,0.,12.0,20.,12.0
1979-03-03 19:10:52.590 ,3,1,4.,12.0,0.,12.0,0.,12.0,14.,12.0
1979-03-03 19:11:04.590 ,4,1,0.,12.0,0.,12.0,0.,12.0,26.,12.0
1979-03-03 19:11:16.590 ,4,1,1.,12.0,0.,12.0,0.,12.0,12.,12.0
1979-03-03 19:11:28.590 ,5,1,1.,12.0,0.,12.0,0.,12.0,14.,12.0
1979-03-03 19:11:40.590 ,5,1,1.,12.0,0.,12.0,0.,12.0,10.,12.0
1979-03-03 19:11:52.590 ,6,1,1.,12.0,0.,12.0,0.,12.0,17.,12.0
1979-03-03 19:12:04.590 ,6,1,1.,12.0,0.,12.0,0.,12.0,16.,12.0
1979-03-03 19:12:16.590 ,7,1,1.,12.0,0.,12.0,0.,12.0,4.,12.0
1979-03-03 19:12:28.590 ,7,1,1.,12.0,0.,12.0,0.,12.0,3.,12.0
1979-03-03 19:12:40.590 ,7,1,0.,12.0,0.,12.0,0.,12.0,0.,12.0
1979-03-03 19:12:52.590 ,7,1,0.,12.0,0.,12.0,0.,12.0,0.,12.0
1979-03-03 19:13:04.590 ,6,1,0.,12.0,0.,12.0,0.,12.0,0.,12.0
1979-03-03 19:13:16.590 ,6,1,0.,12.0,0.,12.0,0.,12.0,12.,12.0
1979-03-03 19:13:28.590 ,5,1,3.,12.0,0.,12.0,0.,12.0,13.,12.0
1979-03-03 19:13:40.590 ,5,1,0.,12.0,0.,12.0,0.,12.0,7.,12.0
1979-03-03 19:13:52.590 ,4,1,0.,12.0,0.,12.0,0.,12.0,12.,12.0
1979-03-03 19:14:04.590 ,4,1,1.,12.0,0.,12.0,0.,12.0,10.,12.0
1979-03-03 19:14:16.590 ,3,1,3.,12.0,0.,12.0,0.,12.0,13.,12.0
1979-03-03 19:14:28.590 ,3,1,3.,12.0,0.,12.0,0.,12.0,24.,12.0
1979-03-03 19:14:40.590 ,2,1,3.,12.0,0.,12.0,0.,12.0,31.,12.0
1979-03-03 19:14:52.590 ,2,1,2.,12.0,0.,12.0,0.,12.0,31.,12.0
1979-03-03 19:15:04.590 ,1,1,2.,12.0,0.,12.0,0.,12.0,33.,12.0
1979-03-03 19:15:16.590 ,1,1,5.,12.0,0.,12.0,0.,12.0,21.,12.0
1979-03-03 19:15:28.590 ,0,1,1.,12.0,0.,12.0,0.,12.0,21.,12.0
1979-03-03 19:15:40.590 ,0,1,0.,12.0,0.,12.0,0.,12.0,15.,12.0
1979-03-03 19:15:52.590 ,0,1,1.,12.0,0.,12.0,0.,12.0,18.,12.0
1979-03-03 19:16:04.590 ,0,1,2.,12.0,0.,12.0,0.,12.0,18.,12.0
1979-03-03 19:16:16.590 ,1,1,1.,12.0,0.,12.0,0.,12.0,12.,12.0
1979-03-03 19:16:28.590 ,1,1,5.,12.0,0.,12.0,0.,12.0,26.,12.0
1979-03-03 19:16:40.590 ,2,1,5.,12.0,0.,12.0,0.,12.0,29.,12.0
1979-03-03 19:16:52.590 ,2,1,3.,12.0,0.,12.0,0.,12.0,30.,12.0
1979-03-03 19:17:04.590 ,3,1,1.,12.0,0.,12.0,0.,12.0,19.,12.0
1979-03-03 19:17:16.590 ,3,1,2.,12.0,0.,12.0,0.,12.0,24.,12.0
1979-03-03 19:17:28.590 ,4,1,0.,12.0,0.,12.0,0.,12.0,21.,12.0
1979-03-03 19:17:40.590 ,4,1,1.,12.0,0.,12.0,0.,12.0,16.,12.0
1979-03-03 19:17:52.590 ,5,1,1.,12.0,0.,12.0,0.,12.0,17.,12.0
1979-03-03 19:18:04.590 ,5,1,0.,12.0,0.,12.0,0.,12.0,16.,12.0
1979-03-03 19:18:16.590 ,6,1,0.,12.0,0.,12.0,0.,12.0,8.,12.0
1979-03-03 19:18:28.590 ,6,1,1.,12.0,0.,12.0,0.,12.0,14.,12.0
1979-03-03 19:18:40.590 ,7,1,1.,12.0,0.,12.0,0.,12.0,8.,12.0
1979-03-03 19:18:52.590 ,7,1,0.,12.0,0.,12.0,0.,12.0,0.,12.0
1979-03-03 19:19:04.590 ,7,1,0.,12.0,0.,12.0,0.,12.0,0.,12.0
1979-03-03 19:19:16.590 ,7,1,0.,12.0,0.,12.0,0.,12.0,0.,12.0
1979-03-03 19:19:28.590 ,6,1,0.,12.0,0.,12.0,0.,12.0,0.,12.0
1979-03-03 19:19:40.590 ,6,1,0.,12.0,0.,12.0,0.,12.0,9.,12.0
1979-03-03 19:19:52.590 ,5,1,1.,12.0,0.,12.0,0.,12.0,12.,12.0
1979-03-03 19:20:04.590 ,5,1,1.,12.0,0.,12.0,0.,12.0,17.,12.0
1979-03-03 19:20:16.590 ,4,1,2.,12.0,0.,12.0,0.,12.0,10.,12.0
1979-03-03 19:20:28.590 ,4,1,0.,12.0,0.,12.0,0.,12.0,13.,12.0
1979-03-03 19:20:40.590 ,3,1,0.,12.0,0.,12.0,0.,12.0,13.,12.0
1979-03-03 19:20:52.590 ,3,1,3.,12.0,0.,12.0,0.,12.0,17.,12.0
1979-03-03 19:21:04.590 ,2,1,1.,12.0,0.,12.0,0.,12.0,25.,12.0
1979-03-03 19:21:16.590 ,2,1,3.,12.0,0.,12.0,0.,12.0,24.,12.0
1979-03-03 19:21:28.590 ,1,1,2.,12.0,0.,12.0,0.,12.0,23.,12.0
1979-03-03 19:21:40.590 ,1,1,1.,12.0,0.,12.0,0.,12.0,15.,12.0
1979-03-03 19:21:52.590 ,0,1,2.,12.0,0.,12.0,0.,12.0,18.,12.0
1979-03-03 19:22:04.590 ,0,1,0.,12.0,0.,12.0,0.,12.0,18.,12.0
1979-03-03 19:22:16.590 ,0,1,2.,12.0,0.,12.0,0.,12.0,10.,12.0
1979-03-03 19:22:28.590 ,0,1,0.,12.0,0.,12.0,0.,12.0,17.,12.0
1979-03-03 19:22:40.590 ,1,1,4.,12.0,0.,12.0,0.,12.0,18.,12.0
1979-03-03 19:22:52.590 ,1,1,1.,12.0,0.,12.0,0.,12.0,26.,12.0
1979-03-03 19:23:04.590 ,0,0,3.,12.0,0.,12.0,0.,12.0,23.,12.0
1979-03-03 19:23:16.590 ,0,0,1.,12.0,0.,12.0,0.,12.0,21.,12.0
1979-03-03 19:23:28.590 ,3,1,3.,12.0,0.,12.0,0.,12.0,17.,12.0
1979-03-03 19:23:40.590 ,3,1,2.,12.0,0.,12.0,0.,12.0,20.,12.0
1979-03-03 19:23:52.590 ,4,1,1.,12.0,0.,12.0,0.,12.0,23.,12.0
1979-03-03 19:24:04.590 ,4,1,1.,12.0,0.,12.0,0.,12.0,21.,12.0
1979-03-03 19:24:16.590 ,5,1,3.,12.0,0.,12.0,0.,12.0,18.,12.0
1979-03-03 19:24:28.590 ,5,1,3.,12.0,0.,12.0,0.,12.0,22.,12.0
1979-03-03 19:24:40.590 ,6,1,0.,12.0,0.,12.0,0.,12.0,21.,12.0
1979-03-03 19:24:52.590 ,6,1,1.,12.0,1.,12.0,0.,12.0,20.,12.0
1979-03-03 19:25:04.590 ,7,1,1.,12.0,0.,12.0,0.,12.0,16.,12.0
1979-03-03 19:25:16.590 ,7,1,0.,12.0,0.,12.0,0.,12.0,6.,12.0
1979-03-03 19:25:28.590 ,7,1,0.,12.0,0.,12.0,0.,12.0,0.,12.0
1979-03-03 19:25:40.590 ,7,1,0.,12.0,0.,12.0,0.,12.0,0.,12.0
1979-03-03 19:25:52.590 ,6,1,0.,12.0,0.,12.0,0.,12.0,0.,12.0
1979-03-03 19:26:04.590 ,6,1,2.,12.0,0.,12.0,0.,12.0,17.,12.0
1979-03-03 19:26:16.590 ,5,1,1.,12.0,0.,12.0,0.,12.0,23.,12.0
1979-03-03 19:26:28.590 ,5,1,2.,12.0,0.,12.0,0.,12.0,21.,12.0
1979-03-03 19:26:40.590 ,4,1,3.,12.0,0.,12.0,0.,12.0,24.,12.0
1979-03-03 19:26:52.590 ,4,1,1.,12.0,0.,12.0,0.,12.0,23.,12.0
1979-03-03 19:27:04.590 ,3,1,0.,12.0,0.,12.0,0.,12.0,17.,12.0
1979-03-03 19:27:16.590 ,3,1,1.,12.0,0.,12.0,0.,12.0,12.,12.0
1979-03-03 19:27:28.590 ,2,1,2.,12.0,0.,12.0,0.,12.0,25.,12.0
1979-03-03 19:27:40.590 ,2,1,2.,12.0,0.,12.0,0.,12.0,10.,12.0
1979-03-03 19:27:52.590 ,1,1,0.,12.0,0.,12.0,0.,12.0,16.,12.0
1979-03-03 19:28:04.590 ,1,1,1.,12.0,0.,12.0,0.,12.0,22.,12.0
1979-03-03 19:28:16.590 ,0,1,2.,12.0,0.,12.0,0.,12.0,13.,12.0
1979-03-03 19:28:28.590 ,0,1,0.,12.0,0.,12.0,0.,12.0,16.,12.0
1979-03-03 19:28:40.590 ,0,1,1.,12.0,0.,12.0,0.,12.0,17.,12.0
1979-03-03 19:28:52.590 ,0,1,1.,12.0,0.,12.0,0.,12.0,19.,12.0
1979-03-03 19:29:04.590 ,1,1,0.,12.0,0.,12.0,0.,12.0,16.,12.0
1979-03-03 19:29:16.590 ,1,1,2.,12.0,0.,12.0,0.,12.0,14.,12.0
1979-03-03 19:29:28.590 ,2,1,2.,12.0,0.,12.0,0.,12.0,14.,12.0
1979-03-03 19:29:40.590 ,2,1,3.,12.0,0.,12.0,0.,12.0,22.,12.0
1979-03-03 19:29:52.590 ,3,1,1.,12.0,0.,12.0,0.,12.0,14.,12.0
1979-03-03 19:30:04.590 ,3,1,1.,12.0,0.,12.0,0.,12.0,21.,12.0
1979-03-03 19:30:16.590 ,4,1,1.,12.0,0.,12.0,0.,12.0,21.,12.0
1979-03-03 19:30:28.590 ,4,1,3.,12.0,0.,12.0,0.,12.0,16.,12.0
1979-03-03 19:30:40.590 ,5,1,2.,12.0,0.,12.0,0.,12.0,32.,12.0
1979-03-03 19:30:52.590 ,5,1,2.,12.0,0.,12.0,0.,12.0,18.,12.0
1979-03-03 19:31:04.590 ,6,1,2.,12.0,0.,12.0,0.,12.0,26.,12.0
1979-03-03 19:31:16.590 ,6,1,4.,12.0,0.,12.0,0.,12.0,19.,12.0
1979-03-03 19:31:28.590 ,7,1,1.,12.0,0.,12.0,0.,12.0,25.,12.0
1979-03-03 19:31:40.590 ,7,1,0.,12.0,0.,12.0,0.,12.0,5.,12.0
1979-03-03 19:31:52.590 ,7,1,0.,12.0,0.,12.0,0.,12.0,0.,12.0
1979-03-03 19:32:04.590 ,7,1,0.,12.0,0.,12.0,0.,12.0,0.,12.0
1979-03-03 19:32:16.590 ,6,1,0.,12.0,0.,12.0,0.,12.0,0.,12.0
1979-03-03 19:32:28.590 ,6,1,0.,12.0,0.,12.0,0.,12.0,15.,12.0
1979-03-03 19:32:40.590 ,5,1,3.,12.0,0.,12.0,0.,12.0,25.,12.0
1979-03-03 19:32:52.590 ,5,1,0.,12.0,0.,12.0,0.,12.0,19.,12.0
1979-03-03 19:33:04.590 ,4,1,0.,12.0,0.,12.0,0.,12.0,27.,12.0
1979-03-03 19:33:16.590 ,4,1,0.,12.0,0.,12.0,0.,12.0,28.,12.0
1979-03-03 19:33:28.590 ,3,1,0.,12.0,0.,12.0,0.,12.0,16.,12.0
1979-03-03 19:33:40.590 ,3,1,0.,12.0,0.,12.0,0.,12.0,17.,12.0
1979-03-03 19:33:52.590 ,2,1,0.,12.0,0.,12.0,0.,12.0,16.,12.0
1979-03-03 19:34:04.590 ,2,1,1.,12.0,0.,12.0,0.,12.0,21.,12.0
1979-03-03 19:34:16.590 ,1,1,1.,12.0,0.,12.0,0.,12.0,18.,12.0
1979-03-03 19:34:28.590 ,1,1,2.,12.0,0.,12.0,0.,12.0,16.,12.0
1979-03-03 19:34:40.590 ,0,1,1.,12.0,0.,12.0,0.,12.0,16.,12.0
1979-03-03 19:34:52.590 ,0,1,1.,12.0,0.,12.0,0.,12.0,12.,12.0
1979-03-03 19:35:04.590 ,0,1,1.,12.0,0.,12.0,0.,12.0,11.,12.0
1979-03-03 19:35:16.590 ,0,1,4.,12.0,0.,12.0,0.,12.0,11.,12.0
1979-03-03 19:35:28.590 ,1,1,0.,12.0,0.,12.0,0.,12.0,15.,12.0
1979-03-03 19:35:40.590 ,1,1,0.,12.0,0.,12.0,0.,12.0,16.,12.0
1979-03-03 19:35:52.590 ,2,1,1.,12.0,0.,12.0,0.,12.0,14.,12.0
1979-03-03 19:36:04.590 ,2,1,1.,12.0,0.,12.0,0.,12.0,11.,12.0
1979-03-03 19:36:16.590 ,3,1,1.,12.0,0.,12.0,0.,12.0,21.,12.0
1979-03-03 19:36:28.590 ,3,1,1.,12.0,0.,12.0,0.,12.0,6.,12.0
1979-03-03 19:36:40.590 ,4,1,1.,12.0,0.,12.0,0.,12.0,15.,12.0
1979-03-03 19:36:52.590 ,4,1,1.,12.0,0.,12.0,0.,12.0,13.,12.0
1979-03-03 19:37:04.590 ,5,1,1.,12.0,0.,12.0,0.,12.0,19.,12.0
1979-03-03 19:37:16.590 ,5,1,2.,12.0,0.,12.0,0.,12.0,23.,12.0
1979-03-03 19:37:28.590 ,6,1,3.,12.0,0.,12.0,0.,12.0,23.,12.0
1979-03-03 19:37:40.590 ,6,1,1.,12.0,0.,12.0,0.,12.0,19.,12.0
1979-03-03 19:37:52.590 ,7,1,2.,12.0,0.,12.0,0.,12.0,20.,12.0
1979-03-03 19:38:04.590 ,7,1,0.,12.0,0.,12.0,0.,12.0,1.,12.0
1979-03-03 19:38:16.590 ,7,1,0.,12.0,0.,12.0,0.,12.0,0.,12.0
1979-03-03 19:38:28.590 ,7,1,0.,12.0,0.,12.0,0.,12.0,0.,12.0
1979-03-03 19:38:40.590 ,6,1,0.,12.0,0.,12.0,0.,12.0,0.,12.0
1979-03-03 19:38:52.590 ,6,1,1.,12.0,0.,12.0,0.,12.0,12.,12.0
1979-03-03 19:39:04.590 ,5,1,2.,12.0,0.,12.0,0.,12.0,18.,12.0
1979-03-03 19:39:16.590 ,5,1,1.,12.0,0.,12.0,0.,12.0,17.,12.0
1979-03-03 19:39:28.590 ,4,1,2.,12.0,0.,12.0,0.,12.0,20.,12.0
1979-03-03 19:39:40.590 ,4,1,0.,12.0,0.,12.0,0.,12.0,17.,12.0
1979-03-03 19:39:52.590 ,3,1,0.,12.0,0.,12.0,0.,12.0,10.,12.0
1979-03-03 19:40:04.590 ,3,1,0.,12.0,0.,12.0,0.,12.0,17.,12.0
1979-03-03 19:40:16.590 ,2,1,2.,12.0,0.,12.0,0.,12.0,16.,12.0
1979-03-03 19:40:28.590 ,2,1,1.,12.0,0.,12.0,0.,12.0,15.,12.0
1979-03-03 19:40:40.590 ,1,1,0.,12.0,0.,12.0,0.,12.0,11.,12.0
1979-03-03 19:40:52.590 ,1,1,0.,12.0,0.,12.0,0.,12.0,19.,12.0
1979-03-03 19:41:04.590 ,0,1,1.,12.0,0.,12.0,0.,12.0,8.,12.0
1979-03-03 19:41:16.590 ,0,1,1.,12.0,0.,12.0,0.,12.0,17.,12.0
1979-03-03 19:41:28.590 ,0,1,2.,12.0,0.,12.0,0.,12.0,9.,12.0
1979-03-03 19:41:40.590 ,0,1,0.,12.0,0.,12.0,0.,12.0,12.,12.0
1979-03-03 19:41:52.590 ,1,1,2.,12.0,0.,12.0,0.,12.0,16.,12.0
1979-03-03 19:42:04.590 ,1,1,0.,12.0,0.,12.0,0.,12.0,7.,12.0
1979-03-03 19:42:16.590 ,2,1,3.,12.0,0.,12.0,0.,12.0,11.,12.0
1979-03-03 19:42:28.590 ,2,1,0.,12.0,0.,12.0,0.,12.0,12.,12.0
1979-03-03 19:42:40.590 ,3,1,2.,12.0,0.,12.0,0.,12.0,21.,12.0
1979-03-03 19:42:52.590 ,3,1,0.,12.0,0.,12.0,0.,12.0,13.,12.0
1979-03-03 19:43:04.590 ,4,1,1.,12.0,0.,12.0,0.,12.0,12.,12.0
1979-03-03 19:43:16.590 ,4,1,1.,12.0,0.,12.0,0.,12.0,15.,12.0
1979-03-03 19:43:28.590 ,0,0,0.,12.0,0.,12.0,0.,12.0,14.,12.0
1979-03-03 19:43:40.590 ,0,0,3.,12.0,0.,12.0,0.,12.0,15.,12.0
1979-03-03 20:35:21.390 ,0,0,,0,,0,,0,,0
1979-03-03 20:35:33.390 ,0,0,,0,,0,,0,,0
1979-03-03 20:35:28.590 ,0,0,1.,12.0,0.,12.0,0.,12.0,12.,12.0
1979-03-03 20:35:40.590 ,0,0,0.,12.0,0.,12.0,0.,12.0,1.,12.0
1979-03-03 20:35:52.590 ,7,1,0.,12.0,0.,12.0,0.,12.0,0.,12.0
1979-03-03 20:36:04.590 ,7,1,0.,12.0,0.,12.0,0.,12.0,0.,12.0
1979-03-03 20:36:16.590 ,6,1,0.,12.0,0.,12.0,0.,12.0,0.,12.0
1979-03-03 20:36:28.590 ,6,1,0.,12.0,0.,12.0,0.,12.0,13.,12.0
1979-03-03 20:36:40.590 ,5,1,1.,12.0,0.,12.0,0.,12.0,11.,12.0
1979-03-03 20:36:52.590 ,5,1,2.,12.0,0.,12.0,0.,12.0,21.,12.0
1979-03-03 20:37:04.590 ,0,0,0.,12.0,0.,12.0,0.,12.0,18.,12.0
1979-03-03 20:37:16.590 ,0,0,0.,12.0,0.,12.0,0.,12.0,17.,12.0
1979-03-03 20:37:28.590 ,0,0,1.,12.0,0.,12.0,0.,12.0,18.,12.0
1979-03-03 20:37:40.590 ,0,0,1.,12.0,0.,12.0,0.,12.0,8.,12.0
1979-03-03 20:37:52.590 ,2,1,0.,12.0,0.,12.0,0.,12.0,4.,12.0
1979-03-03 20:38:04.590 ,2,1,1.,12.0,0.,12.0,0.,12.0,10.,12.0
1979-03-03 20:38:16.590 ,1,1,2.,12.0,0.,12.0,0.,12.0,14.,12.0
1979-03-03 20:38:28.590 ,1,1,1.,12.0,0.,12.0,0.,12.0,19.,12.0
1979-03-03 20:38:40.590 ,0,1,0.,12.0,0.,12.0,0.,12.0,11.,12.0
1979-03-03 20:38:52.590 ,0,1,1.,12.0,0.,12.0,0.,12.0,5.,12.0
1979-03-03 20:39:04.590 ,0,1,0.,12.0,0.,12.0,0.,12.0,6.,12.0
1979-03-03 20:39:16.590 ,0,1,0.,12.0,0.,12.0,0.,12.0,7.,12.0
1979-03-03 20:39:28.590 ,1,1,0.,12.0,0.,12.0,0.,12.0,16.,12.0
1979-03-03 20:39:40.590 ,1,1,0.,12.0,0.,12.0,0.,12.0,13.,12.0
1979-03-03 20:39:52.590 ,2,1,0.,12.0,0.,12.0,0.,12.0,6.,12.0
1979-03-03 20:40:04.590 ,2,1,0.,12.0,0.,12.0,0.,12.0,7.,12.0
1979-03-03 20:40:16.590 ,3,1,0.,12.0,0.,12.0,0.,12.0,15.,12.0
1979-03-03 20:40:28.590 ,3,1,1.,12.0,0.,12.0,0.,12.0,13.,12.0
1979-03-03 20:40:40.590 ,0,0,0.,12.0,0.,12.0,0.,12.0,8.,12.0
1979-03-03 20:40:52.590 ,0,0,0.,12.0,0.,12.0,0.,12.0,18.,12.0
1979-03-03 20:41:04.590 ,5,1,0.,12.0,0.,12.0,0.,12.0,19.,12.0
1979-03-03 20:41:16.590 ,5,1,1.,12.0,0.,12.0,0.,12.0,17.,12.0
1979-03-03 20:41:28.590 ,6,1,2.,12.0,0.,12.0,0.,12.0,17.,12.0
1979-03-03 20:41:40.590 ,6,1,1.,12.0,0.,12.0,0.,12.0,12.,12.0
1979-03-03 20:41:52.590 ,7,1,0.,12.0,0.,12.0,0.,12.0,14.,12.0
1979-03-03 20:42:04.590 ,7,1,1.,12.0,0.,12.0,0.,12.0,2.,12.0